GW3771 Weather Reports


Display with metric or nautical units.
time (UTC)temp
F
wind
direction
speed
MPH
gust
MPH
rain 1hr
in
rain 24hr
in
rain mn
in
humidity
%
barometer
mb
20260505124553 52 0 0.0 5.0 0.00 0.00 0.00 87 1014.8
20260505124036 52 0 1.0 5.0 0.00 0.00 0.00 87 1014.8
20260505123540 52 161 0.0 3.0 0.00 0.00 0.00 87 1014.7
20260505123045 52 141 0.0 2.0 0.00 0.00 0.00 87 1014.7
20260505122540 52 0 0.0 2.0 0.00 0.00 0.00 87 1014.7
20260505122040 52 0 0.0 2.0 0.00 0.00 0.00 87 1014.8
20260505121548 52 0 0.0 2.0 0.00 0.00 0.00 87 1014.8
20260505121040 52 0 0.0 2.0 0.00 0.00 0.00 88 1014.7
20260505120539 52 0 0.0 0.0 0.00 0.00 0.00 88 1014.7
20260505120043 52 0 0.0 0.0 0.00 0.00 0.00 87 1014.7
20260505115539 52 0 0.0 1.0 0.00 0.00 0.00 88 1014.6
20260505115039 52 0 0.0 1.0 0.00 0.00 0.00 88 1014.7
20260505114542 52 221 0.0 1.0 0.00 0.00 0.00 88 1014.7
20260505114041 52 0 0.0 0.0 0.00 0.00 0.00 88 1014.7
20260505113539 52 0 0.0 0.0 0.00 0.00 0.00 88 1014.6
20260505113053 51 0 0.0 0.0 0.00 0.00 0.00 88 1014.6
20260505112540 51 0 0.0 1.0 0.00 0.00 0.00 88 1014.6
20260505112039 51 0 0.0 4.0 0.00 0.00 0.00 88 1014.6
20260505111548 51 0 0.0 4.0 0.00 0.00 0.00 88 1014.6
20260505111040 51 0 0.0 2.0 0.00 0.00 0.00 88 1014.6
20260505110538 51 0 0.0 3.0 0.00 0.00 0.00 87 1014.5
20260505102039 51 192 0.0 2.0 0.00 0.00 0.00 85 1014.1
20260505101551 51 191 0.0 2.0 0.00 0.00 0.00 85 1014.1
20260505101039 51 0 0.0 2.0 0.00 0.00 0.00 85 1014.1
20260505100542 51 0 0.0 2.0 0.00 0.00 0.00 84 1014.1
20260505100049 51 0 0.0 1.0 0.00 0.00 0.00 84 1014.1
20260505095542 51 0 0.0 0.0 0.00 0.00 0.00 84 1014.2
20260505095038 52 0 0.0 0.0 0.00 0.00 0.00 84 1014.1
20260505094606 52 0 0.0 0.0 0.00 0.00 0.00 83 1014.2
20260505094039 52 0 0.0 0.0 0.00 0.00 0.00 83 1014.2
20260505093542 52 0 0.0 0.0 0.00 0.00 0.00 84 1014.1
20260505093054 52 0 0.0 3.0 0.00 0.00 0.00 83 1014.0
20260505092544 52 0 0.0 3.0 0.00 0.00 0.00 83 1014.0
20260505092037 52 104 0.0 3.0 0.00 0.00 0.00 83 1013.9
20260505091549 52 0 0.0 4.0 0.00 0.00 0.00 83 1013.9
20260505091037 52 163 0.0 4.0 0.00 0.00 0.00 83 1013.9
20260505090537 53 166 1.0 3.0 0.00 0.00 0.00 83 1013.8
20260505090058 53 0 0.0 4.0 0.00 0.00 0.00 83 1013.8
20260505085537 53 0 1.0 4.0 0.00 0.00 0.00 82 1013.7
20260505085037 53 0 0.0 4.0 0.00 0.00 0.00 82 1013.7
20260505084553 53 0 0.0 4.0 0.00 0.00 0.00 82 1013.6
20260505084036 53 184 1.0 4.0 0.00 0.00 0.00 82 1013.7
20260505083536 53 167 0.0 4.0 0.00 0.00 0.00 81 1013.7
20260505083056 54 165 0.0 4.0 0.00 0.00 0.00 81 1013.8
20260505082537 54 0 1.0 4.0 0.00 0.00 0.00 81 1013.7
20260505082037 54 166 0.0 4.0 0.00 0.00 0.00 80 1013.7
20260505081558 54 0 0.0 4.0 0.00 0.00 0.00 80 1013.6
20260505081038 54 0 0.0 4.0 0.00 0.00 0.00 80 1013.6
20260505080536 54 0 0.0 4.0 0.00 0.00 0.00 80 1013.5
20260505080051 55 152 1.0 4.0 0.00 0.00 0.00 79 1013.5
20260505075540 55 0 0.0 4.0 0.00 0.00 0.00 79 1013.5
20260505075037 55 0 0.0 0.0 0.00 0.00 0.00 79 1013.5
20260505074548 55 0 0.0 5.0 0.00 0.00 0.00 79 1013.4
20260505074040 55 0 1.0 5.0 0.00 0.00 0.00 79 1013.3
20260505073536 55 163 1.0 4.0 0.00 0.00 0.00 79 1013.2
20260505073047 55 188 1.0 5.0 0.00 0.00 0.00 78 1013.2
20260505072538 56 183 1.0 5.0 0.00 0.00 0.00 78 1013.1
20260505072037 56 169 2.0 5.0 0.00 0.00 0.00 78 1013.1
20260505071551 56 161 2.0 5.0 0.00 0.00 0.00 78 1013.1
20260505071037 56 182 0.0 4.0 0.00 0.00 0.00 78 1013.0
20260505070541 56 137 1.0 6.0 0.00 0.00 0.00 78 1013.0
20260505070051 56 102 2.0 6.0 0.00 0.00 0.00 78 1013.0
20260505065539 56 159 1.0 4.0 0.00 0.00 0.00 77 1013.0
20260505065038 57 131 0.0 4.0 0.00 0.00 0.00 77 1012.9
20260505064549 57 174 1.0 6.0 0.00 0.00 0.00 77 1012.8
20260505064038 57 130 2.0 6.0 0.00 0.00 0.00 77 1012.7
20260505063540 57 166 2.0 6.0 0.00 0.00 0.00 76 1012.7
20260505063048 57 153 0.0 2.0 0.00 0.00 0.00 75 1012.6
20260505062539 58 0 0.0 4.0 0.00 0.00 0.00 75 1012.5
20260505062040 58 0 1.0 5.0 0.00 0.00 0.00 75 1012.5
20260505061552 58 0 1.0 5.0 0.00 0.00 0.00 75 1012.4
20260505061038 58 0 1.0 4.0 0.00 0.00 0.00 74 1012.3
20260505060537 58 0 1.0 5.0 0.00 0.00 0.00 74 1012.4
20260505060049 59 113 0.0 6.0 0.00 0.00 0.00 74 1012.3
20260505055539 59 117 2.0 6.0 0.00 0.00 0.00 74 1012.3
20260505055039 59 109 2.0 6.0 0.00 0.00 0.00 73 1012.3
20260505054554 59 168 2.0 6.0 0.00 0.00 0.00 73 1012.2
20260505054037 60 0 2.0 7.0 0.00 0.00 0.00 73 1012.2
20260505053537 60 188 1.0 7.0 0.00 0.00 0.00 72 1012.1
20260505053044 60 150 2.0 8.0 0.00 0.00 0.00 72 1012.1
20260505052537 61 121 3.0 8.0 0.00 0.00 0.00 71 1012.0
20260505052037 61 155 2.0 6.0 0.00 0.00 0.00 71 1011.9
20260505051543 61 208 1.0 5.0 0.00 0.00 0.00 69 1012.0
20260505051038 62 238 0.0 2.0 0.00 0.00 0.00 68 1011.9
20260505050539 62 0 0.0 1.0 0.00 0.00 0.00 68 1011.9
20260505041548 65 178 1.0 6.0 0.00 0.00 0.00 64 1011.0
20260505041037 65 225 2.0 6.0 0.00 0.00 0.00 63 1011.0
20260505040537 66 221 1.0 7.0 0.00 0.00 0.00 63 1010.9
20260505035541 67 250 2.0 4.0 0.00 0.00 0.00 62 1010.7
20260505035037 67 0 1.0 6.0 0.00 0.00 0.00 62 1010.7
20260505034545 67 219 1.0 6.0 0.00 0.00 0.00 62 1010.6
20260505034037 68 0 1.0 6.0 0.00 0.00 0.00 62 1010.5
20260505033537 68 169 1.0 6.0 0.00 0.00 0.00 61 1010.4
20260505033045 69 220 1.0 7.0 0.00 0.00 0.00 61 1010.4
20260505032540 69 241 0.0 7.0 0.00 0.00 0.00 60 1010.4
20260505032038 69 202 3.0 7.0 0.00 0.00 0.00 60 1010.3
20260505031555 70 211 1.0 6.0 0.00 0.00 0.00 60 1010.2
20260505031045 70 219 1.0 5.0 0.00 0.00 0.00 60 1010.2
20260505030539 70 0 1.0 5.0 0.00 0.00 0.00 60 1010.2
20260505030054 71 175 1.0 4.0 0.00 0.00 0.00 60 1010.1
20260505025540 71 0 1.0 5.0 0.00 0.00 0.00 59 1010.0
20260505025040 71 213 1.0 8.0 0.00 0.00 0.00 59 1009.9
20260505024551 72 224 1.0 9.0 0.00 0.00 0.00 58 1009.9
20260505024039 72 167 3.0 9.0 0.00 0.00 0.00 58 1009.9
20260505023540 73 221 2.0 9.0 0.00 0.00 0.00 57 1009.8
20260505023051 73 194 2.0 9.0 0.00 0.00 0.00 57 1009.9
20260505022540 74 231 1.0 9.0 0.00 0.00 0.00 57 1009.8
20260505022039 74 217 3.0 9.0 0.00 0.00 0.00 56 1009.8
20260505021549 75 225 2.0 9.0 0.00 0.00 0.00 56 1009.8
20260505021040 75 0 2.0 9.0 0.00 0.00 0.00 56 1009.8
20260505020539 75 239 2.0 7.0 0.00 0.00 0.00 56 1009.8
20260505020052 76 186 2.0 7.0 0.00 0.00 0.00 55 1009.7
20260505015539 76 229 2.0 6.0 0.00 0.00 0.00 54 1009.7
20260505015039 77 182 1.0 9.0 0.00 0.00 0.00 53 1009.7
20260505014603 77 184 2.0 9.0 0.00 0.00 0.00 53 1009.7
20260505014042 77 194 4.0 9.0 0.00 0.00 0.00 52 1009.7
20260505013538 78 240 2.0 10.0 0.00 0.00 0.00 51 1009.7
20260505013049 78 213 3.0 10.0 0.00 0.00 0.00 52 1009.9
20260505012539 78 234 1.0 6.0 0.00 0.00 0.00 53 1009.8
20260505012041 78 181 2.0 8.0 0.00 0.00 0.00 52 1009.8
20260505011548 79 215 2.0 8.0 0.00 0.00 0.00 52 1009.9
20260505011039 79 194 2.0 8.0 0.00 0.00 0.00 51 1009.9
20260505010543 79 240 2.0 8.0 0.00 0.00 0.00 51 1010.0
20260505010049 79 173 1.0 6.0 0.00 0.00 0.00 51 1010.1
20260505005539 79 181 3.0 7.0 0.00 0.00 0.00 51 1010.0
20260505005039 79 0 2.0 8.0 0.00 0.00 0.00 51 1010.1
20260505004555 80 0 3.0 9.0 0.00 0.00 0.00 51 1010.1
20260505004038 80 133 2.0 9.0 0.00 0.00 0.00 50 1010.1
20260505003538 80 194 2.0 11.0 0.00 0.00 0.00 50 1010.1
20260505003046 80 191 4.0 11.0 0.00 0.00 0.00 50 1010.1
20260505002542 80 172 3.0 8.0 0.00 0.00 0.00 50 1010.1
20260505002039 80 248 3.0 9.0 0.00 0.00 0.00 50 1010.2
20260505001545 80 209 2.0 10.0 0.00 0.00 0.00 50 1010.3
20260505001038 80 153 3.0 10.0 0.00 0.00 0.00 49 1010.3
20260505000539 80 185 3.0 9.0 0.00 0.00 0.00 50 1010.2
20260505000057 79 209 1.0 7.0 0.00 0.00 0.00 51 1010.3
20260504235542 79 172 1.0 7.0 0.00 0.00 0.00 51 1010.3
20260504235041 79 145 2.0 8.0 0.00 0.00 0.00 51 1010.2
20260504234547 79 209 3.0 8.0 0.00 0.00 0.00 50 1010.3
20260504234039 78 198 2.0 8.0 0.00 0.00 0.00 51 1010.4
20260504233539 78 245 2.0 9.0 0.00 0.00 0.00 51 1010.5
20260504233052 78 202 2.0 10.0 0.00 0.00 0.00 52 1010.6
20260504232539 78 183 5.0 11.0 0.00 0.00 0.00 51 1010.6
20260504232040 78 115 5.0 11.0 0.00 0.00 0.00 50 1010.5
20260504231549 78 174 5.0 11.0 0.00 0.00 0.00 51 1010.6
20260504231038 78 157 5.0 13.0 0.00 0.00 0.00 50 1010.6
20260504230538 78 165 6.0 13.0 0.00 0.00 0.00 50 1010.7
20260504230050 79 161 3.0 9.0 0.00 0.00 0.00 50 1010.8
20260504225540 78 130 4.0 10.0 0.00 0.00 0.00 50 1010.8
20260504225041 78 166 4.0 10.0 0.00 0.00 0.00 50 1010.8
20260504224554 78 128 3.0 10.0 0.00 0.00 0.00 50 1010.9
20260504224039 78 119 4.0 10.0 0.00 0.00 0.00 50 1010.9
20260504223540 79 165 5.0 10.0 0.00 0.00 0.00 49 1010.9
20260504223047 78 161 5.0 9.0 0.00 0.00 0.00 49 1011.0
20260504222542 78 197 4.0 9.0 0.00 0.00 0.00 50 1011.0
20260504222039 78 244 3.0 9.0 0.00 0.00 0.00 52 1011.1
20260504221544 78 100 4.0 10.0 0.00 0.00 0.00 51 1011.2
20260504221039 78 175 3.0 10.0 0.00 0.00 0.00 49 1011.2
20260504220539 78 121 4.0 10.0 0.00 0.00 0.00 50 1011.3
20260504220046 78 193 2.0 10.0 0.00 0.00 0.00 51 1011.3
20260504215539 77 246 2.0 8.0 0.00 0.00 0.00 48 1011.3
20260504215039 77 165 3.0 8.0 0.00 0.00 0.00 50 1011.4
20260504214554 77 189 3.0 7.0 0.00 0.00 0.00 52 1011.4
20260504214039 77 295 2.0 7.0 0.00 0.00 0.00 52 1011.6
20260504213539 76 0 1.0 7.0 0.00 0.00 0.00 52 1011.5
20260504213056 76 157 1.0 9.0 0.00 0.00 0.00 52 1011.7
20260504212538 75 161 2.0 9.0 0.00 0.00 0.00 53 1011.7
20260504212043 75 116 3.0 9.0 0.00 0.00 0.00 53 1011.9
20260504211549 75 159 2.0 7.0 0.00 0.00 0.00 53 1012.0
20260504211041 74 0 2.0 7.0 0.00 0.00 0.00 53 1012.0
20260504210539 74 227 1.0 9.0 0.00 0.00 0.00 54 1012.2
20260504210058 74 149 3.0 9.0 0.00 0.00 0.00 53 1012.3
20260504205625 74 154 4.0 9.0 0.00 0.00 0.00 55 1012.4
20260504205038 73 227 3.0 9.0 0.00 0.00 0.00 55 1012.4
20260504204557 73 223 2.0 9.0 0.00 0.00 0.00 56 1012.4
20260504204039 72 141 2.0 8.0 0.00 0.00 0.00 57 1012.6
20260504203539 72 163 3.0 8.0 0.00 0.00 0.00 57 1012.6
20260504203052 71 194 2.0 7.0 0.00 0.00 0.00 58 1012.7
20260504202539 71 119 3.0 10.0 0.00 0.00 0.00 59 1012.7
20260504202039 70 217 2.0 10.0 0.00 0.00 0.00 61 1012.8
20260504201542 69 238 5.0 10.0 0.00 0.00 0.00 61 1012.9
20260504201037 69 190 2.0 9.0 0.00 0.00 0.00 63 1013.0
20260504200537 68 182 2.0 11.0 0.00 0.00 0.00 63 1013.0
20260504200048 67 187 4.0 11.0 0.00 0.00 0.00 64 1013.1
20260504195536 67 239 1.0 6.0 0.00 0.00 0.00 66 1013.1
20260504195038 66 205 0.0 7.0 0.00 0.00 0.00 66 1013.1
20260504194547 66 148 2.0 7.0 0.00 0.00 0.00 65 1013.1
20260504194041 65 206 2.0 5.0 0.00 0.00 0.00 67 1013.1
20260504193538 64 185 1.0 7.0 0.00 0.00 0.00 68 1013.2
20260504193048 64 252 3.0 7.0 0.00 0.00 0.00 68 1013.2
20260504192536 64 161 2.0 9.0 0.00 0.00 0.00 69 1013.4
20260504192037 63 131 2.0 9.0 0.00 0.00 0.00 69 1013.3
20260504191550 63 142 4.0 9.0 0.00 0.00 0.00 70 1013.3
20260504191038 63 205 2.0 7.0 0.00 0.00 0.00 70 1013.4
20260504190538 63 155 2.0 7.0 0.00 0.00 0.00 71 1013.4
20260504190042 62 178 2.0 8.0 0.00 0.00 0.00 72 1013.4
20260504185538 62 0 1.0 8.0 0.00 0.00 0.00 72 1013.5
20260504185040 62 0 2.0 5.0 0.00 0.00 0.00 72 1013.5
20260504184547 61 195 1.0 7.0 0.00 0.00 0.00 73 1013.5
20260504184037 61 0 1.0 8.0 0.00 0.00 0.00 74 1013.6
20260504183537 61 198 2.0 8.0 0.00 0.00 0.00 73 1013.6
20260504183047 60 175 2.0 9.0 0.00 0.00 0.00 74 1013.5
20260504182540 60 162 3.0 9.0 0.00 0.00 0.00 73 1013.6
20260504182038 60 150 3.0 6.0 0.00 0.00 0.00 73 1013.5
20260504181548 60 264 2.0 6.0 0.00 0.00 0.00 74 1013.4
20260504181038 60 0 1.0 6.0 0.00 0.00 0.00 75 1013.4
20260504180538 60 205 1.0 7.0 0.00 0.00 0.00 76 1013.6
20260504180044 59 191 2.0 7.0 0.00 0.00 0.00 76 1013.5
20260504175537 59 213 3.0 7.0 0.00 0.00 0.00 75 1013.5
20260504175037 60 119 2.0 8.0 0.00 0.00 0.00 76 1013.4
20260504174548 59 228 4.0 8.0 0.00 0.00 0.00 74 1013.4
20260504174038 59 147 3.0 7.0 0.00 0.00 0.00 75 1013.4
20260504173539 59 137 2.0 7.0 0.00 0.00 0.00 76 1013.4
20260504173105 59 189 2.0 10.0 0.00 0.00 0.00 76 1013.4
20260504172539 58 209 4.0 11.0 0.00 0.00 0.00 77 1013.4
20260504172039 58 161 5.0 11.0 0.00 0.00 0.00 76 1013.4
20260504171546 58 227 5.0 9.0 0.00 0.00 0.00 76 1013.4
20260504171039 58 190 3.0 12.0 0.00 0.00 0.00 77 1013.3
20260504170539 58 146 2.0 12.0 0.00 0.00 0.00 78 1013.3
20260504151039 55 200 2.0 6.0 0.00 0.00 0.00 83 1013.1
20260504150540 55 181 2.0 6.0 0.00 0.00 0.00 84 1013.0
20260504141037 53 190 2.0 6.0 0.00 0.00 0.00 86 1012.3
20260504140536 53 135 3.0 9.0 0.00 0.00 0.00 86 1012.3
20260504130538 53 185 3.0 8.0 0.00 0.00 0.00 84 1011.4